UKV6311 YSSY-YBCS

Flight info

Callsign UKV6311
Flight time 2h 48m
Altitude 38000
Route TESAT H530 LASUD Q293 AKUMI Q147 VOMPA Q499 NONUM J64 CS
Aircraft A320/M-SDE3FGHIRWY/LB1

Departure

Time 2026-04-26 22:33
Airport Sydney Kingsford Smith International Airport (YSSY)

Arrival

Time 2026-04-27 01:21
Airport Cairns International Airport (YBCS)
Time Latitude Longitude Altitude Speed Heading
2026-04-26 21:51 -33.93575 151.17901 85 ft 0 kts 99°
2026-04-26 22:10 -33.93575 151.17902 31 ft 0 kts 99°
2026-04-26 22:15 -33.93575 151.17896 31 ft 2 kts 99°
2026-04-26 22:15 -33.93572 151.17876 31 ft 2 kts 123°
2026-04-26 22:15 -33.93559 151.17864 31 ft 2 kts 194°
2026-04-26 22:16 -33.93555 151.17865 31 ft 0 kts 205°
2026-04-26 22:23 -33.93583 151.17850 31 ft 7 kts 205°
2026-04-26 22:23 -33.93640 151.17819 30 ft 12 kts 203°
2026-04-26 22:23 -33.93738 151.17796 28 ft 18 kts 187°
2026-04-26 22:24 -33.93876 151.17775 22 ft 18 kts 172°
2026-04-26 22:24 -33.93950 151.17794 22 ft 0 kts 165°
2026-04-26 22:24 -33.93947 151.17793 22 ft 0 kts 165°
2026-04-26 22:25 -33.93962 151.17798 22 ft 4 kts 163°
2026-04-26 22:25 -33.94005 151.17814 23 ft 9 kts 163°
2026-04-26 22:25 -33.94082 151.17834 23 ft 14 kts 171°
2026-04-26 22:25 -33.94193 151.17855 24 ft 19 kts 171°
2026-04-26 22:26 -33.94304 151.17841 26 ft 17 kts 234°
2026-04-26 22:26 -33.94341 151.17746 22 ft 11 kts 270°
2026-04-26 22:26 -33.94364 151.17638 24 ft 15 kts 255°
2026-04-26 22:26 -33.94398 151.17498 24 ft 20 kts 251°
2026-04-26 22:27 -33.94466 151.17367 31 ft 18 kts 202°
2026-04-26 22:27 -33.94592 151.17387 28 ft 20 kts 166°
2026-04-26 22:27 -33.94749 151.17426 28 ft 26 kts 169°
2026-04-26 22:27 -33.94954 151.17481 20 ft 32 kts 166°
2026-04-26 22:28 -33.95178 151.17540 18 ft 35 kts 169°
2026-04-26 22:28 -33.95416 151.17601 20 ft 35 kts 167°
2026-04-26 22:28 -33.95622 151.17656 23 ft 28 kts 168°
2026-04-26 22:28 -33.95820 151.17707 23 ft 31 kts 167°
2026-04-26 22:29 -33.96041 151.17763 24 ft 33 kts 169°
2026-04-26 22:29 -33.96240 151.17812 22 ft 13 kts 165°
2026-04-26 22:29 -33.96336 151.17843 23 ft 15 kts 165°
2026-04-26 22:29 -33.96428 151.17885 24 ft 12 kts 136°
2026-04-26 22:30 -33.96439 151.17918 24 ft 1 kts 90°
2026-04-26 22:30 -33.96438 151.17921 24 ft 0 kts 81°
2026-04-26 22:31 -33.96438 151.17922 24 ft 0 kts 81°
2026-04-26 22:31 -33.96435 151.17946 24 ft 10 kts 81°
2026-04-26 22:31 -33.96394 151.18040 26 ft 9 kts 355°
2026-04-26 22:32 -33.96278 151.18027 23 ft 25 kts 351°
2026-04-26 22:32 -33.96003 151.17956 20 ft 71 kts 347°
2026-04-26 22:32 -33.95304 151.17768 24 ft 132 kts 347°
2026-04-26 22:32 -33.94245 151.17506 105 ft 172 kts 349°
2026-04-26 22:33 -33.93113 151.17254 988 ft 158 kts 349°
2026-04-26 22:33 -33.91088 151.16709 2509 ft 156 kts 344°
2026-04-26 22:33 -33.90024 151.16218 3017 ft 166 kts 335°
2026-04-26 22:34 -33.89052 151.15426 3525 ft 179 kts 319°
2026-04-26 22:34 -33.88185 151.14260 3992 ft 194 kts 312°
2026-04-26 22:34 -33.87246 151.13016 4543 ft 207 kts 315°
2026-04-26 22:34 -33.86205 151.11750 5118 ft 220 kts 314°
2026-04-26 22:35 -33.85146 151.10323 5585 ft 240 kts 307°
2026-04-26 22:35 -33.84121 151.08616 5999 ft 264 kts 305°
2026-04-26 22:35 -33.83010 151.06766 6633 ft 278 kts 307°
2026-04-26 22:35 -33.81801 151.04912 7445 ft 284 kts 309°
2026-04-26 22:36 -33.80512 151.03099 8337 ft 287 kts 311°
2026-04-26 22:36 -33.79161 151.01325 9221 ft 290 kts 313°
2026-04-26 22:36 -33.77761 150.99564 10107 ft 293 kts 314°
2026-04-26 22:36 -33.76327 150.97807 10897 ft 296 kts 314°
2026-04-26 22:37 -33.74868 150.96035 11670 ft 300 kts 314°
2026-04-26 22:37 -33.73389 150.94250 12471 ft 303 kts 314°
2026-04-26 22:37 -33.71892 150.92444 13258 ft 307 kts 314°
2026-04-26 22:37 -33.70371 150.90610 13988 ft 314 kts 314°
2026-04-26 22:38 -33.68780 150.88683 14180 ft 337 kts 314°
2026-04-26 22:38 -33.67079 150.86609 14335 ft 358 kts 314°
2026-04-26 22:38 -33.65307 150.84448 14790 ft 367 kts 314°
2026-04-26 22:38 -33.63522 150.82279 15399 ft 372 kts 314°
2026-04-26 22:39 -33.61693 150.80062 16014 ft 376 kts 315°
2026-04-26 22:39 -33.59840 150.77817 16665 ft 380 kts 315°
2026-04-26 22:39 -33.57964 150.75576 17300 ft 383 kts 316°
2026-04-26 22:39 -33.56044 150.73339 17919 ft 387 kts 316°
2026-04-26 22:40 -33.54098 150.71097 18530 ft 390 kts 317°
2026-04-26 22:40 -33.52126 150.68835 19059 ft 394 kts 317°
2026-04-26 22:40 -33.50140 150.66558 19570 ft 398 kts 317°
2026-04-26 22:40 -33.48134 150.64256 20087 ft 401 kts 316°
2026-04-26 22:41 -33.46118 150.61931 20613 ft 404 kts 316°
2026-04-26 22:41 -33.44091 150.59586 21120 ft 407 kts 316°
2026-04-26 22:41 -33.42053 150.57224 21647 ft 409 kts 316°
2026-04-26 22:41 -33.39996 150.54843 22141 ft 413 kts 316°
2026-04-26 22:42 -33.37922 150.52451 22630 ft 416 kts 316°
2026-04-26 22:42 -33.35834 150.50041 23122 ft 419 kts 316°
2026-04-26 22:42 -33.33731 150.47614 23582 ft 422 kts 316°
2026-04-26 22:42 -33.31616 150.45174 24046 ft 424 kts 316°
2026-04-26 22:43 -33.29484 150.42718 24446 ft 427 kts 316°
2026-04-26 22:43 -33.27336 150.40254 24841 ft 429 kts 316°
2026-04-26 22:43 -33.25178 150.37780 25235 ft 431 kts 316°
2026-04-26 22:43 -33.23007 150.35291 25612 ft 434 kts 316°
2026-04-26 22:44 -33.20829 150.32795 25991 ft 436 kts 316°
2026-04-26 22:44 -33.18634 150.30277 26358 ft 438 kts 316°
2026-04-26 22:44 -33.16430 150.27753 26720 ft 441 kts 316°
2026-04-26 22:44 -33.14210 150.25216 27089 ft 443 kts 316°
2026-04-26 22:45 -33.12006 150.22700 27445 ft 445 kts 316°
2026-04-26 22:45 -33.09763 150.20138 27804 ft 448 kts 316°
2026-04-26 22:45 -33.07511 150.17566 28155 ft 450 kts 316°
2026-04-26 22:45 -33.05241 150.14981 28494 ft 452 kts 316°
2026-04-26 22:46 -33.02963 150.12386 28832 ft 454 kts 316°
2026-04-26 22:46 -33.00674 150.09779 29156 ft 457 kts 316°
2026-04-26 22:46 -32.98370 150.07156 29466 ft 459 kts 316°
2026-04-26 22:46 -32.96059 150.04528 29795 ft 461 kts 316°
2026-04-26 22:47 -32.93736 150.01889 30091 ft 463 kts 315°
2026-04-26 22:47 -32.91400 149.99235 30385 ft 465 kts 316°
2026-04-26 22:47 -32.89053 149.96574 30635 ft 467 kts 315°
2026-04-26 22:47 -32.86697 149.93899 30895 ft 468 kts 315°
2026-04-26 22:48 -32.84342 149.91226 31208 ft 469 kts 315°
2026-04-26 22:48 -32.81980 149.88548 31533 ft 468 kts 315°
2026-04-26 22:48 -32.79625 149.85879 31862 ft 468 kts 315°
2026-04-26 22:48 -32.77265 149.83207 32199 ft 468 kts 315°
2026-04-26 22:49 -32.74905 149.80542 32525 ft 468 kts 315°
2026-04-26 22:49 -32.72544 149.77881 32863 ft 468 kts 315°
2026-04-26 22:49 -32.70187 149.75226 33197 ft 467 kts 315°
2026-04-26 22:49 -32.67828 149.72573 33533 ft 467 kts 315°
2026-04-26 22:50 -32.65470 149.69915 33862 ft 467 kts 315°
2026-04-26 22:50 -32.63116 149.67266 34207 ft 467 kts 315°
2026-04-26 22:50 -32.60763 149.64623 34514 ft 466 kts 315°
2026-04-26 22:50 -32.58411 149.61981 34827 ft 465 kts 315°
2026-04-26 22:51 -32.56096 149.59304 35133 ft 463 kts 311°
2026-04-26 22:51 -32.54031 149.56388 35439 ft 461 kts 308°
2026-04-26 22:51 -32.52007 149.53447 35727 ft 460 kts 308°
2026-04-26 22:51 -32.49982 149.50510 36004 ft 459 kts 308°
2026-04-26 22:52 -32.47963 149.47588 36279 ft 459 kts 308°
2026-04-26 22:52 -32.45943 149.44665 36549 ft 458 kts 308°
2026-04-26 22:52 -32.43929 149.41756 36819 ft 457 kts 308°
2026-04-26 22:52 -32.41918 149.38848 37083 ft 456 kts 308°
2026-04-26 22:53 -32.39938 149.35987 37331 ft 455 kts 308°
2026-04-26 22:53 -32.37932 149.33097 37578 ft 454 kts 308°
2026-04-26 22:53 -32.35928 149.30215 37830 ft 453 kts 308°
2026-04-26 22:53 -32.33927 149.27342 38073 ft 452 kts 308°
2026-04-26 22:54 -32.31930 149.24470 38274 ft 452 kts 308°
2026-04-26 22:54 -32.27938 149.18725 38315 ft 452 kts 308°
2026-04-26 22:55 -32.23948 149.12987 38315 ft 452 kts 308°
2026-04-26 22:55 -32.19955 149.07265 38315 ft 452 kts 308°
2026-04-26 22:56 -32.15951 149.01545 38311 ft 452 kts 308°
2026-04-26 22:56 -32.11943 148.95817 38310 ft 453 kts 308°
2026-04-26 22:57 -32.07630 148.90407 38314 ft 455 kts 321°
2026-04-26 22:57 -32.02093 148.86827 38314 ft 456 kts 341°
2026-04-26 22:58 -31.95911 148.85127 38312 ft 457 kts 348°
2026-04-26 22:58 -31.89679 148.83600 38310 ft 458 kts 348°
2026-04-26 22:59 -31.84496 148.82328 38314 ft 458 kts 348°
2026-04-26 22:59 -31.78252 148.80810 38312 ft 458 kts 348°
2026-04-26 23:00 -31.72002 148.79300 38310 ft 458 kts 348°
2026-04-26 23:00 -31.64737 148.77555 38312 ft 459 kts 348°
2026-04-26 23:01 -31.59503 148.76294 38312 ft 459 kts 348°
2026-04-26 23:01 -31.53300 148.74793 38304 ft 459 kts 348°
2026-04-26 23:02 -31.47039 148.73274 38303 ft 459 kts 348°
2026-04-26 23:02 -31.40723 148.71756 38300 ft 460 kts 348°
2026-04-26 23:03 -31.34499 148.70266 38293 ft 460 kts 348°
2026-04-26 23:03 -31.28222 148.68767 38288 ft 460 kts 348°
2026-04-26 23:04 -31.21944 148.67261 38294 ft 461 kts 348°
2026-04-26 23:04 -31.15662 148.65754 38298 ft 461 kts 348°
2026-04-26 23:05 -31.09376 148.64246 38297 ft 461 kts 348°
2026-04-26 23:05 -31.03083 148.62747 38297 ft 462 kts 348°
2026-04-26 23:06 -30.96786 148.61248 38292 ft 462 kts 348°
2026-04-26 23:06 -30.90481 148.59750 38296 ft 462 kts 348°
2026-04-26 23:07 -30.84179 148.58254 38294 ft 462 kts 348°
2026-04-26 23:07 -30.77871 148.56752 38305 ft 463 kts 348°
2026-04-26 23:08 -30.71562 148.55264 38303 ft 462 kts 348°
2026-04-26 23:08 -30.65258 148.53775 38311 ft 462 kts 348°
2026-04-26 23:09 -30.58955 148.52279 38298 ft 462 kts 348°
2026-04-26 23:09 -30.52649 148.50790 38293 ft 463 kts 348°
2026-04-26 23:10 -30.46338 148.49303 38289 ft 463 kts 348°
2026-04-26 23:10 -30.40024 148.47817 38292 ft 463 kts 348°
2026-04-26 23:11 -30.33738 148.46340 38287 ft 464 kts 349°
2026-04-26 23:11 -30.27403 148.44852 38278 ft 465 kts 349°
2026-04-26 23:12 -30.21053 148.43366 38275 ft 466 kts 349°
2026-04-26 23:12 -30.14693 148.41875 38279 ft 466 kts 349°
2026-04-26 23:13 -30.08329 148.40384 38285 ft 467 kts 349°
2026-04-26 23:13 -30.01957 148.38894 38289 ft 467 kts 349°
2026-04-26 23:14 -29.95580 148.37404 38280 ft 468 kts 349°
2026-04-26 23:14 -29.89204 148.35914 38280 ft 468 kts 349°
2026-04-26 23:15 -29.82823 148.34431 38278 ft 468 kts 349°
2026-04-26 23:15 -29.76434 148.32959 38274 ft 468 kts 349°
2026-04-26 23:16 -29.70043 148.31480 38269 ft 469 kts 349°
2026-04-26 23:16 -29.63642 148.30001 38271 ft 469 kts 349°
2026-04-26 23:17 -29.57238 148.28519 38277 ft 469 kts 349°
2026-04-26 23:17 -29.50835 148.27031 38264 ft 469 kts 349°
2026-04-26 23:18 -29.44433 148.25543 38268 ft 469 kts 349°
2026-04-26 23:18 -29.38032 148.24064 38270 ft 469 kts 349°
2026-04-26 23:19 -29.31670 148.22604 38272 ft 469 kts 349°
2026-04-26 23:19 -29.25268 148.21136 38272 ft 469 kts 349°
2026-04-26 23:20 -29.20985 148.20150 38273 ft 469 kts 349°
2026-04-26 23:21 -28.99890 148.15316 38272 ft 472 kts 350°
2026-04-26 23:22 -28.93451 148.13842 38266 ft 472 kts 350°
2026-04-26 23:22 -28.87008 148.12377 38277 ft 472 kts 350°
2026-04-26 23:23 -28.80558 148.10910 38276 ft 473 kts 350°
2026-04-26 23:23 -28.74106 148.09444 38272 ft 473 kts 350°
2026-04-26 23:24 -28.67655 148.07968 38261 ft 473 kts 350°
2026-04-26 23:24 -28.61200 148.06498 38259 ft 473 kts 350°
2026-04-26 23:25 -28.54784 148.05048 38259 ft 473 kts 350°
2026-04-26 23:25 -28.48324 148.03591 38270 ft 474 kts 350°
2026-04-26 23:26 -28.41849 148.02130 38263 ft 475 kts 350°
2026-04-26 23:26 -28.38607 148.01396 38263 ft 475 kts 350°
2026-04-26 23:27 -28.22046 147.97658 38273 ft 475 kts 350°
2026-04-26 23:28 -28.15557 147.96203 38264 ft 475 kts 350°
2026-04-26 23:28 -28.09071 147.94741 38261 ft 475 kts 350°
2026-04-26 23:29 -28.02892 147.93351 38257 ft 475 kts 350°
2026-04-26 23:29 -27.96398 147.91898 38246 ft 476 kts 350°
2026-04-26 23:30 -27.89898 147.90437 38249 ft 476 kts 350°
2026-04-26 23:30 -27.83614 147.89026 38249 ft 477 kts 350°
2026-04-26 23:31 -27.77106 147.87578 38250 ft 477 kts 350°
2026-04-26 23:31 -27.70593 147.86126 38244 ft 477 kts 350°
2026-04-26 23:32 -27.64082 147.84669 38258 ft 476 kts 350°
2026-04-26 23:32 -27.57625 147.83235 38258 ft 476 kts 350°
2026-04-26 23:33 -27.51137 147.81793 38252 ft 475 kts 350°
2026-04-26 23:33 -27.44653 147.80349 38250 ft 475 kts 350°
2026-04-26 23:34 -27.38177 147.78912 38260 ft 474 kts 349°
2026-04-26 23:34 -27.31721 147.77483 38260 ft 472 kts 349°
2026-04-26 23:35 -27.25279 147.76062 38252 ft 472 kts 349°
2026-04-26 23:35 -27.18840 147.74644 38252 ft 471 kts 349°
2026-04-26 23:36 -27.12413 147.73228 38254 ft 470 kts 349°
2026-04-26 23:36 -27.06000 147.71807 38260 ft 469 kts 349°
2026-04-26 23:37 -26.99601 147.70397 38257 ft 468 kts 349°
2026-04-26 23:37 -26.93213 147.68993 38253 ft 468 kts 349°
2026-04-26 23:38 -26.86831 147.67593 38242 ft 467 kts 348°
2026-04-26 23:38 -26.80467 147.66190 38255 ft 465 kts 347°
2026-04-26 23:39 -26.74125 147.64794 38246 ft 464 kts 347°
2026-04-26 23:39 -26.67794 147.63412 38253 ft 463 kts 347°
2026-04-26 23:40 -26.61510 147.62042 38244 ft 463 kts 347°
2026-04-26 23:40 -26.55184 147.60660 38243 ft 463 kts 347°
2026-04-26 23:41 -26.48823 147.59279 38239 ft 462 kts 347°
2026-04-26 23:41 -26.42562 147.57872 38236 ft 461 kts 342°
2026-04-26 23:41 -26.39641 147.56472 38236 ft 455 kts 325°
2026-04-26 23:42 -26.37241 147.54230 38231 ft 449 kts 308°
2026-04-26 23:42 -26.34697 147.48065 38212 ft 439 kts 277°
2026-04-26 23:42 -26.34285 147.44694 38208 ft 439 kts 275°
2026-04-26 23:43 -26.33560 147.37920 38176 ft 441 kts 275°
2026-04-26 23:43 -26.32768 147.31143 38215 ft 441 kts 275°
2026-04-26 23:44 -26.31948 147.24376 38230 ft 440 kts 275°
2026-04-26 23:44 -26.31214 147.17611 38226 ft 437 kts 267°
2026-04-26 23:45 -26.31627 147.14295 38227 ft 431 kts 250°
2026-04-26 23:45 -26.32777 147.11217 38224 ft 430 kts 245°
2026-04-26 23:45 -26.33612 147.08019 38200 ft 433 kts 261°
2026-04-26 23:45 -26.33546 147.04659 38201 ft 438 kts 278°
2026-04-26 23:46 -26.32568 147.01426 38202 ft 447 kts 294°
2026-04-26 23:46 -26.30743 146.98592 38200 ft 456 kts 311°
2026-04-26 23:46 -26.28255 146.96447 38192 ft 465 kts 328°
2026-04-26 23:46 -26.25231 146.95111 38198 ft 472 kts 342°
2026-04-26 23:47 -26.18787 146.93496 38193 ft 475 kts 345°
2026-04-26 23:47 -26.12185 146.93246 38175 ft 485 kts 12°
2026-04-26 23:48 -26.05829 146.95866 38183 ft 489 kts 20°
2026-04-26 23:48 -25.99511 146.98678 38179 ft 489 kts 20°
2026-04-26 23:49 -25.93193 147.01502 38158 ft 490 kts 20°
2026-04-26 23:49 -25.86840 147.04332 38171 ft 493 kts 20°
2026-04-26 23:50 -25.80466 147.07164 38168 ft 494 kts 20°
2026-04-26 23:50 -25.74087 147.09986 38166 ft 494 kts 20°
2026-04-26 23:51 -25.67711 147.12814 38169 ft 493 kts 20°
2026-04-26 23:51 -25.61356 147.15650 38151 ft 492 kts 20°
2026-04-26 23:52 -25.55008 147.18488 38159 ft 492 kts 20°
2026-04-26 23:52 -25.48656 147.21327 38151 ft 492 kts 20°
2026-04-26 23:53 -25.42315 147.24208 38135 ft 493 kts 20°
2026-04-26 23:53 -25.35978 147.27129 38126 ft 493 kts 20°
2026-04-26 23:54 -25.29639 147.30050 38127 ft 493 kts 20°
2026-04-26 23:54 -25.23215 147.32267 38089 ft 481 kts 358°
2026-04-26 23:55 -25.16626 147.31800 38081 ft 474 kts 349°
2026-04-26 23:55 -25.10007 147.31475 38084 ft 477 kts 354°
2026-04-26 23:56 -25.03367 147.31406 38077 ft 476 kts 354°
2026-04-26 23:56 -24.96739 147.31234 38039 ft 476 kts 351°
2026-04-26 23:57 -24.90127 147.30951 38041 ft 475 kts 351°
2026-04-26 23:57 -24.83533 147.30643 38036 ft 474 kts 351°
2026-04-26 23:58 -24.76938 147.30362 38034 ft 474 kts 351°
2026-04-26 23:58 -24.70355 147.30112 37981 ft 473 kts 351°
2026-04-26 23:59 -24.63795 147.29776 37983 ft 466 kts 343°
2026-04-26 23:59 -24.60758 147.28797 37983 ft 448 kts 326°
2026-04-26 23:59 -24.58099 147.27098 37989 ft 443 kts 322°
2026-04-27 00:00 -24.55240 147.25726 37979 ft 458 kts 339°
2026-04-27 00:00 -24.52035 147.25305 38138 ft 474 kts 356°
2026-04-27 00:00 -24.48736 147.25938 38192 ft 488 kts
2026-04-27 00:00 -24.45447 147.26896 38179 ft 488 kts
2026-04-27 00:01 -24.42173 147.27385 38150 ft 476 kts 353°
2026-04-27 00:01 -24.38871 147.27370 38185 ft 477 kts 354°
2026-04-27 00:01 -24.32209 147.27922 38182 ft 483 kts 359°
2026-04-27 00:02 -24.25540 147.28739 38179 ft 481 kts 359°
2026-04-27 00:02 -24.18892 147.29606 38180 ft 481 kts
2026-04-27 00:03 -24.15570 147.30061 38345 ft 481 kts
2026-04-27 00:03 -24.12225 147.30237 38134 ft 483 kts
2026-04-27 00:03 -24.08857 147.30295 37986 ft 483 kts
2026-04-27 00:03 -24.05506 147.30342 38010 ft 480 kts
2026-04-27 00:04 -23.98856 147.30431 38009 ft 476 kts
2026-04-27 00:04 -23.92258 147.30518 38009 ft 472 kts
2026-04-27 00:05 -23.86820 147.30588 38009 ft 469 kts
2026-04-27 00:05 -23.79222 147.30684 38009 ft 465 kts
2026-04-27 00:06 -23.72777 147.30764 38009 ft 462 kts
2026-04-27 00:06 -23.66376 147.30760 38009 ft 458 kts 358°
2026-04-27 00:07 -23.60030 147.30321 38009 ft 456 kts 355°
2026-04-27 00:07 -23.53770 147.29720 38009 ft 453 kts 355°
2026-04-27 00:08 -23.47500 147.29194 38009 ft 451 kts 355°
2026-04-27 00:08 -23.41250 147.28749 38009 ft 449 kts 356°
2026-04-27 00:09 -23.35034 147.28309 38009 ft 447 kts 356°
2026-04-27 00:09 -23.28846 147.27860 38009 ft 445 kts 356°
2026-04-27 00:10 -23.22687 147.27409 38009 ft 443 kts 356°
2026-04-27 00:10 -23.16554 147.26956 38009 ft 441 kts 356°
2026-04-27 00:11 -23.10444 147.26531 38009 ft 439 kts 356°
2026-04-27 00:11 -23.04359 147.26127 38009 ft 437 kts 356°
2026-04-27 00:12 -22.98295 147.25723 38009 ft 436 kts 356°
2026-04-27 00:12 -22.93266 147.25388 38009 ft 435 kts 356°
2026-04-27 00:13 -22.87241 147.24984 38009 ft 433 kts 356°
2026-04-27 00:13 -22.81235 147.24581 38009 ft 432 kts 356°
2026-04-27 00:14 -22.75243 147.24177 38009 ft 430 kts 356°
2026-04-27 00:14 -22.69272 147.23796 38009 ft 429 kts 357°
2026-04-27 00:15 -22.63315 147.23500 38009 ft 428 kts 357°
2026-04-27 00:15 -22.57371 147.23207 38009 ft 427 kts 357°
2026-04-27 00:16 -22.51391 147.22910 37520 ft 432 kts 357°
2026-04-27 00:16 -22.48387 147.22758 37371 ft 434 kts 356°
2026-04-27 00:16 -22.45439 147.22608 38082 ft 410 kts 356°
2026-04-27 00:17 -22.42641 147.22462 38365 ft 406 kts 356°
2026-04-27 00:17 -22.39793 147.22312 38182 ft 410 kts 356°
2026-04-27 00:17 -22.34121 147.22094 38345 ft 405 kts 358°
2026-04-27 00:18 -22.32514 147.22054 38413 ft 402 kts 358°
2026-04-27 00:18 -22.30692 147.22008 38303 ft 406 kts 357°
2026-04-27 00:18 -22.27799 147.21879 37485 ft 426 kts 357°
2026-04-27 00:19 -22.24810 147.21726 36925 ft 429 kts 356°
2026-04-27 00:19 -22.21850 147.21558 37204 ft 420 kts 356°
2026-04-27 00:19 -22.18960 147.21379 37415 ft 416 kts 355°
2026-04-27 00:19 -22.16041 147.21182 37278 ft 419 kts 355°
2026-04-27 00:20 -22.13187 147.20973 37830 ft 402 kts 355°
2026-04-27 00:20 -22.10474 147.20763 38613 ft 378 kts 355°
2026-04-27 00:20 -22.07951 147.20560 39028 ft 357 kts 354°
2026-04-27 00:20 -22.05475 147.20354 38573 ft 357 kts 355°
2026-04-27 00:21 -22.02943 147.20191 37975 ft 369 kts 356°
2026-04-27 00:21 -22.00406 147.20046 38137 ft 364 kts 356°
2026-04-27 00:21 -21.95386 147.19749 38326 ft 358 kts 355°
2026-04-27 00:22 -21.90446 147.19469 38406 ft 355 kts 357°
2026-04-27 00:22 -21.85518 147.19216 38406 ft 354 kts 357°
2026-04-27 00:23 -21.80604 147.18963 38406 ft 353 kts 357°
2026-04-27 00:23 -21.75700 147.18710 38406 ft 352 kts 357°
2026-04-27 00:24 -21.70807 147.18456 38406 ft 352 kts 357°
2026-04-27 00:24 -21.65926 147.18168 38406 ft 351 kts 356°
2026-04-27 00:25 -21.61056 147.17914 38406 ft 350 kts 357°
2026-04-27 00:25 -21.56206 147.17711 38099 ft 359 kts 357°
2026-04-27 00:26 -21.51215 147.17522 37983 ft 362 kts 358°
2026-04-27 00:26 -21.46198 147.17344 38009 ft 361 kts 358°
2026-04-27 00:27 -21.41175 147.17157 38009 ft 361 kts 358°
2026-04-27 00:27 -21.36150 147.16962 38009 ft 362 kts 358°
2026-04-27 00:28 -21.31116 147.16762 38009 ft 362 kts 358°
2026-04-27 00:28 -21.26075 147.16564 38009 ft 363 kts 358°
2026-04-27 00:29 -21.21028 147.16378 38009 ft 363 kts 358°
2026-04-27 00:29 -21.15974 147.16187 38009 ft 364 kts 358°
2026-04-27 00:30 -21.10829 147.15987 36839 ft 388 kts 358°
2026-04-27 00:30 -21.08063 147.15879 36286 ft 405 kts 358°
2026-04-27 00:30 -21.05221 147.15770 35384 ft 413 kts 355°
2026-04-27 00:31 -21.02357 147.15665 35749 ft 410 kts 351°
2026-04-27 00:31 -20.99501 147.15559 35991 ft 412 kts 351°
2026-04-27 00:31 -20.93721 147.15323 36095 ft 426 kts 351°
2026-04-27 00:32 -20.87683 147.15081 36098 ft 442 kts 351°
2026-04-27 00:32 -20.81438 147.14848 36094 ft 454 kts 352°
2026-04-27 00:33 -20.75113 147.14619 36093 ft 456 kts 352°
2026-04-27 00:33 -20.68849 147.14008 36092 ft 446 kts 340°
2026-04-27 00:34 -20.62842 147.12386 36088 ft 445 kts 339°
2026-04-27 00:34 -20.56380 147.10659 36085 ft 446 kts 340°
2026-04-27 00:35 -20.50486 147.08776 36089 ft 434 kts 326°
2026-04-27 00:35 -20.45468 147.05330 36088 ft 436 kts 332°
2026-04-27 00:36 -20.39710 147.03136 36090 ft 440 kts 335°
2026-04-27 00:36 -20.33836 147.01340 36087 ft 446 kts 342°
2026-04-27 00:37 -20.27759 146.99992 36087 ft 446 kts 342°
2026-04-27 00:37 -20.21687 146.98648 36088 ft 445 kts 342°
2026-04-27 00:38 -20.15626 146.97300 36084 ft 445 kts 342°
2026-04-27 00:38 -20.11585 146.96368 36080 ft 442 kts 338°
2026-04-27 00:39 -20.05252 146.92142 36071 ft 430 kts 324°
2026-04-27 00:39 -20.02504 146.90921 36087 ft 441 kts 341°
2026-04-27 00:39 -19.99406 146.90663 36088 ft 454 kts 358°
2026-04-27 00:40 -19.93075 146.91079 36071 ft 456 kts 358°
2026-04-27 00:40 -19.86730 146.91492 36072 ft 456 kts 356°
2026-04-27 00:41 -19.83615 146.91255 36069 ft 444 kts 342°
2026-04-27 00:41 -19.80673 146.90357 36080 ft 437 kts 333°
2026-04-27 00:41 -19.75222 146.87611 36073 ft 433 kts 328°
2026-04-27 00:42 -19.69820 146.84771 36074 ft 433 kts 328°
2026-04-27 00:42 -19.64401 146.81933 36064 ft 435 kts 328°
2026-04-27 00:43 -19.58998 146.79090 36074 ft 432 kts 328°
2026-04-27 00:43 -19.53610 146.76254 36076 ft 432 kts 328°
2026-04-27 00:44 -19.48003 146.73314 36079 ft 432 kts 328°
2026-04-27 00:44 -19.42612 146.70494 36082 ft 432 kts 328°
2026-04-27 00:45 -19.37223 146.67656 36081 ft 433 kts 328°
2026-04-27 00:45 -19.31832 146.64814 36074 ft 432 kts 328°
2026-04-27 00:46 -19.26470 146.61992 36080 ft 430 kts 328°
2026-04-27 00:46 -19.21122 146.59177 36078 ft 429 kts 328°
2026-04-27 00:47 -19.15776 146.56363 36077 ft 429 kts 328°
2026-04-27 00:47 -19.10431 146.53547 36068 ft 429 kts 328°
2026-04-27 00:48 -19.05122 146.50748 36066 ft 429 kts 328°
2026-04-27 00:48 -18.99780 146.47932 36052 ft 428 kts 328°
2026-04-27 00:49 -18.94455 146.45144 36059 ft 428 kts 328°
2026-04-27 00:49 -18.89123 146.42351 36059 ft 428 kts 328°
2026-04-27 00:50 -18.81989 146.38613 36058 ft 428 kts 328°
2026-04-27 00:51 -18.76660 146.35819 36058 ft 428 kts 328°
2026-04-27 00:51 -18.71366 146.33042 36057 ft 428 kts 328°
2026-04-27 00:52 -18.66041 146.30267 36054 ft 426 kts 328°
2026-04-27 00:52 -18.60729 146.27533 36054 ft 424 kts 328°
2026-04-27 00:53 -18.55425 146.24802 36054 ft 424 kts 328°
2026-04-27 00:53 -18.50120 146.22069 36054 ft 424 kts 328°
2026-04-27 00:54 -18.44818 146.19337 36057 ft 424 kts 328°
2026-04-27 00:54 -18.39516 146.16603 36057 ft 424 kts 328°
2026-04-27 00:55 -18.34208 146.13899 36056 ft 422 kts 328°
2026-04-27 00:55 -18.28911 146.11269 36059 ft 420 kts 328°
2026-04-27 00:56 -18.23626 146.08649 36057 ft 420 kts 328°
2026-04-27 00:56 -18.18341 146.06025 36057 ft 420 kts 328°
2026-04-27 00:57 -18.13090 146.03418 36054 ft 421 kts 328°
2026-04-27 00:57 -18.07793 146.00785 36054 ft 421 kts 328°
2026-04-27 00:58 -18.02499 145.98152 36057 ft 421 kts 328°
2026-04-27 00:58 -17.97201 145.95518 36056 ft 421 kts 328°
2026-04-27 00:59 -17.91906 145.92883 36056 ft 421 kts 328°
2026-04-27 00:59 -17.86616 145.90245 36053 ft 421 kts 328°
2026-04-27 01:00 -17.81318 145.87601 36063 ft 422 kts 328°
2026-04-27 01:00 -17.76024 145.84954 36064 ft 421 kts 328°
2026-04-27 01:01 -17.70734 145.82343 36064 ft 418 kts 327°
2026-04-27 01:01 -17.65461 145.79796 36063 ft 417 kts 328°
2026-04-27 01:02 -17.60184 145.77250 36067 ft 418 kts 328°
2026-04-27 01:02 -17.54949 145.74736 36065 ft 417 kts 327°
2026-04-27 01:03 -17.50528 145.72610 36069 ft 417 kts 328°
2026-04-27 01:03 -17.44359 145.69645 36064 ft 417 kts 327°
2026-04-27 01:03 -17.41727 145.68383 35579 ft 415 kts 327°
2026-04-27 01:04 -17.39101 145.67133 34914 ft 414 kts 327°
2026-04-27 01:04 -17.36480 145.65885 34217 ft 414 kts 327°
2026-04-27 01:04 -17.33858 145.64629 33380 ft 415 kts 328°
2026-04-27 01:04 -17.31253 145.63366 32843 ft 410 kts 328°
2026-04-27 01:05 -17.28681 145.62107 32250 ft 406 kts 328°
2026-04-27 01:05 -17.26132 145.60842 31602 ft 405 kts 328°
2026-04-27 01:05 -17.23590 145.59560 30945 ft 405 kts 328°
2026-04-27 01:05 -17.21057 145.58261 30290 ft 406 kts 328°
2026-04-27 01:06 -17.18529 145.56944 29464 ft 403 kts 328°
2026-04-27 01:06 -17.16036 145.55623 28363 ft 400 kts 328°
2026-04-27 01:06 -17.13575 145.54291 27339 ft 397 kts 328°
2026-04-27 01:06 -17.11146 145.52950 26364 ft 393 kts 328°
2026-04-27 01:07 -17.08749 145.51605 25407 ft 389 kts 328°
2026-04-27 01:07 -17.06384 145.50251 24494 ft 386 kts 328°
2026-04-27 01:07 -17.04048 145.48875 23588 ft 384 kts 328°
2026-04-27 01:07 -17.01740 145.47484 22581 ft 382 kts 327°
2026-04-27 01:08 -16.99454 145.46110 21720 ft 377 kts 327°
2026-04-27 01:08 -16.97202 145.44768 21181 ft 363 kts 327°
2026-04-27 01:08 -16.95075 145.43514 21061 ft 339 kts 327°
2026-04-27 01:08 -16.93081 145.42350 20938 ft 318 kts 327°
2026-04-27 01:09 -16.91200 145.41263 20808 ft 300 kts 327°
2026-04-27 01:09 -16.89415 145.40241 20513 ft 289 kts 327°
2026-04-27 01:09 -16.87656 145.39240 20014 ft 287 kts 327°
2026-04-27 01:09 -16.85904 145.38249 19522 ft 285 kts 327°
2026-04-27 01:10 -16.84168 145.37273 19132 ft 281 kts 327°
2026-04-27 01:10 -16.82449 145.36311 19139 ft 282 kts 327°
2026-04-27 01:10 -16.80741 145.35355 18997 ft 281 kts 327°
2026-04-27 01:10 -16.78999 145.34385 18533 ft 279 kts 327°
2026-04-27 01:11 -16.77308 145.33455 18082 ft 276 kts 327°
2026-04-27 01:11 -16.75599 145.32534 17315 ft 283 kts 327°
2026-04-27 01:11 -16.73809 145.31552 16312 ft 298 kts 329°
2026-04-27 01:11 -16.71787 145.30867 15339 ft 317 kts 351°
2026-04-27 01:12 -16.69548 145.31112 14394 ft 334 kts 18°
2026-04-27 01:12 -16.67568 145.32408 13432 ft 343 kts 46°
2026-04-27 01:12 -16.66334 145.34528 12417 ft 346 kts 75°
2026-04-27 01:12 -16.66138 145.36993 11433 ft 342 kts 99°
2026-04-27 01:13 -16.66499 145.39437 10490 ft 340 kts 102°
2026-04-27 01:13 -16.66889 145.41863 9522 ft 337 kts 102°
2026-04-27 01:13 -16.67281 145.44257 8513 ft 333 kts 101°
2026-04-27 01:13 -16.67664 145.46610 7524 ft 326 kts 100°
2026-04-27 01:14 -16.68035 145.48928 6559 ft 321 kts 100°
2026-04-27 01:14 -16.68396 145.51206 5565 ft 315 kts 100°
2026-04-27 01:14 -16.68747 145.53441 4624 ft 309 kts 101°
2026-04-27 01:14 -16.69076 145.55570 4205 ft 284 kts 101°
2026-04-27 01:15 -16.69375 145.57511 4072 ft 259 kts 102°
2026-04-27 01:15 -16.69650 145.59279 4004 ft 235 kts 101°
2026-04-27 01:15 -16.69897 145.60878 3999 ft 211 kts 103°
2026-04-27 01:15 -16.70117 145.62306 4012 ft 191 kts 103°
2026-04-27 01:16 -16.70337 145.63600 3994 ft 171 kts 107°
2026-04-27 01:16 -16.70656 145.64732 3996 ft 157 kts 114°
2026-04-27 01:16 -16.71115 145.65745 3998 ft 158 kts 121°
2026-04-27 01:16 -16.71754 145.66695 3808 ft 158 kts 131°
2026-04-27 01:17 -16.72495 145.67465 3689 ft 143 kts 137°
2026-04-27 01:17 -16.73235 145.68159 3402 ft 145 kts 139°
2026-04-27 01:17 -16.74050 145.68848 2910 ft 153 kts 145°
2026-04-27 01:17 -16.74914 145.69416 2754 ft 141 kts 149°
2026-04-27 01:18 -16.75763 145.69896 2627 ft 138 kts 151°
2026-04-27 01:18 -16.76625 145.70340 2451 ft 138 kts 153°
2026-04-27 01:18 -16.77494 145.70758 2282 ft 136 kts 155°
2026-04-27 01:18 -16.78364 145.71164 2109 ft 138 kts 157°
2026-04-27 01:19 -16.79287 145.71478 1919 ft 141 kts 161°
2026-04-27 01:19 -16.80226 145.71782 1720 ft 141 kts 158°
2026-04-27 01:19 -16.81159 145.72106 1550 ft 142 kts 158°
2026-04-27 01:19 -16.82093 145.72431 1385 ft 141 kts 157°
2026-04-27 01:20 -16.83013 145.72796 1188 ft 140 kts 155°
2026-04-27 01:20 -16.83901 145.73208 913 ft 139 kts 156°
2026-04-27 01:20 -16.84798 145.73585 640 ft 141 kts 159°
2026-04-27 01:20 -16.85689 145.73988 377 ft 139 kts 159°
2026-04-27 01:21 -16.86559 145.74350 47 ft 137 kts 157°
2026-04-27 01:21 -16.87440 145.74750 -6 ft 135 kts 155°
2026-04-27 01:21 -16.88028 145.75005 13 ft 48 kts 158°
2026-04-27 01:21 -16.88187 145.75086 13 ft 22 kts 151°
2026-04-27 01:22 -16.88329 145.75151 17 ft 23 kts 152°
2026-04-27 01:22 -16.88335 145.75263 14 ft 13 kts 62°
2026-04-27 01:22 -16.88244 145.75295 12 ft 17 kts 342°
2026-04-27 01:22 -16.88169 145.75259 12 ft 12 kts 340°
2026-04-27 01:23 -16.88094 145.75229 11 ft 11 kts 338°
2026-04-27 01:23 -16.88025 145.75200 10 ft 10 kts 337°
2026-04-27 01:23 -16.87954 145.75165 12 ft 12 kts 333°
2026-04-27 01:23 -16.87876 145.75126 13 ft 12 kts 334°
2026-04-27 01:24 -16.87797 145.75092 14 ft 12 kts 339°
2026-04-27 01:24 -16.87720 145.75061 13 ft 12 kts 339°
2026-04-27 01:24 -16.87641 145.75029 13 ft 12 kts 339°
2026-04-27 01:24 -16.87562 145.74997 14 ft 12 kts 338°
2026-04-27 01:25 -16.87490 145.74967 14 ft 10 kts 338°
2026-04-27 01:25 -16.87430 145.74961 -3 ft 10 kts 12°
2026-04-27 01:25 -16.87389 145.75017 -2 ft 10 kts 91°
2026-04-27 01:25 -16.87436 145.75074 -2 ft 11 kts 99°
2026-04-27 01:26 -16.87439 145.75112 -2 ft 0 kts 95°
2026-04-27 01:26 -16.87439 145.75113 -2 ft 0 kts 95°